(173) Ino
ephemeris date magn radius delta ra dec elong phase
Today28 Jul 202613.43.036 AU2.667 AU15h14m-01°21'101.4°19.1°
Opposition3 Sep 202710.42.240 AU1.234 AU22h59m-12°43'174.2°2.6°
(173) Ino - 2026-07-28
astro.vanbuitenen.nl


 
-1 year
-1 month
-1 day
Now
+1 day
+1 month
+1 year

The interactive orbit chart above shows the body's path through the solar system and its position at the given date. Green and blue lines are shown perpendicular to the ecliptic plane: Green if the path is above the ecliptic plane, blue if it is below. (Left-click and drag to rotate the view; Right-click and drag to move the view; Use scroll wheel to zoom in our out.)

The orbital elements of Ino are:

            e (Eccentricity)                : 0.2093396
            a (Semimajor axis)              : 2.7421540
            i (Inclination)                 : 14.19456
            Ω (Longitude of ascending node) : 148.11879
            ω (Argument of perihelion)      : 228.53493
            M (Mean anomaly)                : 238.83177
            Epoch                           : 2026 Jun 09

            L (Longitude of perihelion)     : 195.77064
            B (Latitude of perihelion)      : -10.58852
            P (Orbital period in years)     : 4.54            
        

The light curve chart below shows the estimated development of the minor planet's magnitude.


The all-sky chart below shows the path of the minor planet over the same period as the light curve. The current position is marked yellow.





The following chart shows the path of the minor planet in the next few days. The field of view is optimized for (~10x50) binoculars and finderscopes.




Ephemerides:
Date       Time       RA (2000)    DEC (2000)    delta   radius  elong  phase   PA    magn
2026-07-28 00:00 UT   15 14 15.5   -01 21 04     2.667    3.036  101.4   19.1   109   13.4 
2026-07-28 07:56 UT   15 14 21.5   -01 23 15     2.671    3.036  101.2   19.2   109   13.4 
2026-07-29 00:00 UT   15 14 33.8   -01 27 44     2.679    3.035  100.6   19.2   109   13.4 
2026-07-30 00:00 UT   15 14 53.3   -01 34 27     2.690    3.033   99.8   19.3   109   13.4 
2026-07-31 00:00 UT   15 15 13.9   -01 41 14     2.702    3.031   99.0   19.3   108   13.4 
2026-08-01 00:00 UT   15 15 35.7   -01 48 04     2.713    3.030   98.2   19.4   108   13.5 
2026-08-02 00:00 UT   15 15 58.5   -01 54 56     2.725    3.028   97.4   19.4   108   13.5 
2026-08-03 00:00 UT   15 16 22.5   -02 01 52     2.736    3.026   96.6   19.5   108   13.5 
2026-08-04 00:00 UT   15 16 47.6   -02 08 50     2.748    3.024   95.8   19.5   107   13.5 
2026-08-05 00:00 UT   15 17 13.8   -02 15 51     2.759    3.023   95.1   19.5   107   13.5 
2026-08-06 00:00 UT   15 17 41.1   -02 22 54     2.771    3.021   94.3   19.6   107   13.5 
2026-08-07 00:00 UT   15 18 09.4   -02 29 59     2.783    3.019   93.5   19.6   106   13.5 
2026-08-08 00:00 UT   15 18 38.9   -02 37 07     2.794    3.018   92.7   19.6   106   13.5 
2026-08-09 00:00 UT   15 19 09.4   -02 44 17     2.806    3.016   92.0   19.6   106   13.5 
2026-08-10 00:00 UT   15 19 40.9   -02 51 29     2.818    3.014   91.2   19.6   106   13.5 
2026-08-11 00:00 UT   15 20 13.5   -02 58 43     2.829    3.012   90.4   19.7   105   13.5 
2026-08-12 00:00 UT   15 20 47.2   -03 05 59     2.841    3.011   89.7   19.7   105   13.5 
2026-08-13 00:00 UT   15 21 21.9   -03 13 16     2.853    3.009   88.9   19.7   105   13.6 
2026-08-14 00:00 UT   15 21 57.6   -03 20 35     2.864    3.007   88.2   19.7   105   13.6 
2026-08-15 00:00 UT   15 22 34.3   -03 27 55     2.876    3.005   87.4   19.7   104   13.6 
2026-08-16 00:00 UT   15 23 12.0   -03 35 17     2.887    3.004   86.7   19.7   104   13.6 
2026-08-17 00:00 UT   15 23 50.8   -03 42 40     2.899    3.002   85.9   19.7   104   13.6 
2026-08-18 00:00 UT   15 24 30.4   -03 50 03     2.911    3.000   85.2   19.6   104   13.6 
2026-08-19 00:00 UT   15 25 11.1   -03 57 28     2.922    2.998   84.4   19.6   103   13.6 
2026-08-20 00:00 UT   15 25 52.7   -04 04 54     2.934    2.996   83.7   19.6   103   13.6 
2026-08-21 00:00 UT   15 26 35.3   -04 12 20     2.945    2.995   83.0   19.6   103   13.6 
2026-08-22 00:00 UT   15 27 18.8   -04 19 47     2.957    2.993   82.2   19.6   103   13.6 
2026-08-23 00:00 UT   15 28 03.2   -04 27 15     2.968    2.991   81.5   19.5   102   13.6 
2026-08-24 00:00 UT   15 28 48.5   -04 34 43     2.980    2.989   80.8   19.5   102   13.6 
2026-08-25 00:00 UT   15 29 34.7   -04 42 11     2.991    2.987   80.1   19.5   102   13.6 
2026-08-26 00:00 UT   15 30 21.9   -04 49 40     3.003    2.986   79.3   19.4   102   13.6 
2026-08-27 00:00 UT   15 31 09.9   -04 57 09     3.014    2.984   78.6   19.4   102   13.6 


    Terminology:
            
    delta:  distance between minor planet and earth in AU
    radius: distance between minor planet and sun in AU
    magn:   magnitude (brightness) estimate    
    ra:     right ascension in hours (24h = 360deg)
    dec:    declination in degrees
    elong:  elongation in degrees (angle sun-earth-minor planet)    
    phase:  phase angle in degrees (angle sun-minor planet-earth)        
    AU:     Astronomical Unit (mean distance between earth and sun: 149597870.7 km
    

Orbital elements provided by the MPC (Minor Planet Center).
Calculations by a modified version of AAPlus, a C# implementation of the AA+ project by PJ Naughter from the algorithms presented in the book "Astronomical Algorithms" by Jean Meeus.
NGC2000 dso catalog and star labels from VizieR as provided by the Strasbourg astronomical Data Center.
Tycho2 catalog from the ESO archive.